Location: Grand Mazuras
(45.9128°N, 1.7636°E)
Time: 17:44:50
(UTC+00:00)

Cosmos 1634 Rocket - Pass Details

Date: 18 April 2021
Orbit: 958 x 993 km, 82.9° (Epoch: 12 May)

Event Time Altitude Azimuth Distance (km) Brightness Sun altitude
Rises 19:57:12 0° 182° (S) 3,684 6.7 -12.5°
Reaches altitude 10° 19:59:42 10° 181° (S) 2,735 6.1 -12.8°
Maximum altitude 20:05:58 79° 96° (E) 1,003 4.0 -13.7°
Drops below altitude 10° 20:12:14 10° 11° (N) 2,730 6.6 -14.7°
Sets 20:14:44 0° 10° (N) 3,677 7.4 -15.0°
